Change the Weather History Date:

Saturday, March 23, 2013

  Actual Average Record
Temperature  
Mean Temperature 32 °F -  
Max Temperature 45 °F 58 °F 72 °F (1990)
Min Temperature 21 °F 22 °F 13 °F (1993)
Degree Days  
Heating Degree Days 32    
Moisture  
Dew Point -1 °F    
Average Humidity 25    
Maximum Humidity 48    
Minimum Humidity 8    
Precipitation  
Precipitation 0.00 in - - ()
Sea Level Pressure  
Sea Level Pressure 29.87 in    
Wind  
Wind Speed 10 mph (WNW)    
Max Wind Speed 23 mph    
Max Gust Speed 36 mph    
Visibility 10 miles    
Events      
Averages and records for this station are not official NWS values.
T = Trace of Precipitation, MM = Missing Value Source: NWS Daily Summary

Daily Weather History Graph

Daily Weather History Graph

Search for Another Location

Airport or City:

Trip Planner

Search our weather history database for the weather conditions in past years. The results will help you decide how hot, cold, wet, or windy it might be!

Date:

Astronomy

Mar. 23, 2013 Rise Set
Actual Time 7:14 AM MDT 7:29 PM MDT
Civil Twilight 6:48 AM MDT 7:55 PM MDT
Nautical Twilight 6:18 AM MDT 8:24 PM MDT
Astronomical Twilight 5:48 AM MDT 8:55 PM MDT
Moon 4:05 PM MDT (3/23) 4:45 AM MDT (3/23)
Length of Visible Light 13h 06m
Length of Day
12h 15m
Waxing Gibbous, 85% of the Moon is Illuminated
Mar 23
Waxing Gibbous
Mar 27
Full
Apr 2
Last Quarter
Apr 10
New
Apr 18
First Quarter

Hourly Weather History & Observations

Time (MDT) Temp. Windchill Dew Point Humidity Pressure Visibility Wind Dir Wind Speed Gust Speed Precip Events Conditions
12:53 AM 44.1 °F 37.7 °F 21.9 °F 42% 29.56 in 10.0 mi SW 12.7 mph - N/A   Clear
1:53 AM 41.0 °F 34.3 °F 19.0 °F 41% 29.58 in 10.0 mi SSW 11.5 mph - N/A   Clear
2:53 AM 37.9 °F 32.1 °F 15.1 °F 39% 29.60 in 10.0 mi SW 8.1 mph - N/A   Clear
3:53 AM 35.1 °F 28.6 °F 10.9 °F 37% 29.60 in 10.0 mi West 8.1 mph - N/A   Clear
4:53 AM 30.9 °F 26.2 °F 3.0 °F 31% 29.65 in 10.0 mi West 4.6 mph - N/A   Clear
5:53 AM 25.0 °F 19.3 °F 6.1 °F 45% 29.74 in 10.0 mi SE 4.6 mph - N/A   Clear
6:53 AM 21.0 °F - 3.9 °F 48% 29.80 in 10.0 mi Calm Calm - N/A   Clear
7:53 AM 21.9 °F - 3.9 °F 46% 29.84 in 10.0 mi Calm Calm - N/A   Clear
8:53 AM 33.1 °F 24.9 °F 8.1 °F 35% 29.79 in 10.0 mi WNW 10.4 mph - N/A   Clear
9:53 AM 36.0 °F 29.0 °F 7.0 °F 30% 29.80 in 10.0 mi WNW 9.2 mph - N/A   Clear
10:53 AM 39.9 °F 30.2 °F 1.9 °F 20% 29.79 in 10.0 mi WNW 20.7 mph 35.7 mph N/A   Clear
11:53 AM 39.9 °F 31.4 °F 1.9 °F 20% 29.84 in 10.0 mi NW 16.1 mph 33.4 mph N/A   Clear
12:53 PM 41.0 °F 32.8 °F 3.0 °F 21% 29.86 in 10.0 mi NW 16.1 mph 24.2 mph N/A   Clear
1:53 PM 42.1 °F 33.3 °F -0.0 °F 17% 29.88 in 10.0 mi West 19.6 mph 31.1 mph N/A   Clear
2:53 PM 42.1 °F 34.5 °F -7.1 °F 12% 29.91 in 10.0 mi NW 15.0 mph 27.6 mph N/A   Clear
3:53 PM 43.0 °F 33.8 °F -13.0 °F 9% 29.93 in 10.0 mi WNW 23.0 mph 34.5 mph N/A   Clear
4:53 PM 43.0 °F 34.2 °F -15.0 °F 8% 29.95 in 10.0 mi NNW 20.7 mph 27.6 mph N/A   Clear
5:53 PM 43.0 °F 35.7 °F -16.1 °F 8% 30.01 in 10.0 mi NW 15.0 mph 21.9 mph N/A   Clear
6:53 PM 39.9 °F 32.1 °F -15.0 °F 9% 30.08 in 10.0 mi NNW 13.8 mph - N/A   Clear
7:53 PM 36.0 °F 29.6 °F -15.0 °F 11% 30.13 in 10.0 mi North 8.1 mph - N/A   Clear
8:53 PM 30.9 °F 25.2 °F -15.0 °F 13% 30.11 in 10.0 mi North 5.8 mph - N/A   Clear
9:53 PM 25.0 °F 20.7 °F -14.1 °F 18% 30.14 in 10.0 mi SE 3.5 mph - N/A   Clear
10:53 PM 25.0 °F 20.7 °F -15.0 °F 17% 30.12 in 10.0 mi ENE 3.5 mph - N/A   Clear
11:53 PM 21.0 °F - -11.9 °F 23% 30.14 in 10.0 mi Calm Calm - N/A   Clear